Location: ???????
(55.4362°N, 38.1183°E)
Time: 17:13:20
(UTC+00:00)

Cosmos 1607 - Pass Details

Date: 17 June 2021
Orbit: 911 x 991 km, 65.0° (Epoch: 30 July)

Event Time Altitude Azimuth Distance (km) Brightness Sun altitude
Rises 19:20:00 0° 310° (NW) 3,713 8.6 -6.5°
Reaches altitude 10° 19:22:37 10° 313° (NW) 2,758 7.8 -6.7°
Maximum altitude 19:29:06 70° 37° (NE) 1,040 4.3 -7.1°
Drops below altitude 10° 19:35:26 10° 121° (ESE) 2,705 5.8 -7.5°
Enters shadow 19:36:53 - 123° (ESE) 3,231 6.2 -7.6°
